Location: Unspecified
(33.9239°N, 118.0544°W)
Time: 19:26:30
(UTC-07:00)

Cosmos 2058 - Visible Passes

Search period start: 23 September 2014 00:00
Search period end: 03 October 2014 00:00
Orbit: 570 x 594 km, 82.5° (Epoch: 22 September)

Date Brightness Start Highest point End Pass type
(mag) Time Alt. Az. Time Alt. Az. Time Alt. Az.
23 Sep 3.0 20:39:09 10° N 20:42:54 71° NNW 20:42:54 71° NNW visible
24 Sep 3.5 20:44:56 10° NNW 20:49:02 57° W 20:49:21 55° WSW visible
25 Sep 4.8 19:15:33 10° NE 19:17:30 13° ENE 19:19:26 10° ESE visible
25 Sep 4.3 20:50:50 10° NNW 20:54:43 38° W 20:55:57 30° SW visible
26 Sep 4.4 19:20:21 10° NNE 19:23:20 19° ENE 19:26:18 10° ESE visible
26 Sep 5.0 20:56:52 10° NW 21:00:21 26° W 21:02:47 16° SW visible
27 Sep 3.9 19:25:33 10° NNE 19:29:08 26° ENE 19:32:42 10° SE visible
27 Sep 5.6 21:03:07 10° NW 21:05:58 18° W 21:08:50 10° SW visible
28 Sep 3.4 19:30:57 10° N 19:34:54 38° E 19:38:50 10° SSE visible
28 Sep 6.1 21:09:50 10° WNW 21:11:34 12° W 21:13:17 10° WSW visible
29 Sep 2.9 19:36:29 10° N 19:40:38 58° E 19:44:47 10° SSE visible
30 Sep 2.9 19:42:08 10° N 19:46:21 87° E 19:50:35 10° S visible
01 Oct 3.4 19:47:52 10° NNW 19:52:02 62° W 19:56:12 10° S visible
02 Oct 4.3 19:53:43 10° NNW 19:57:42 41° W 20:01:40 10° SSW visible
